Wind_Speed
6 5 5 4 4 4 3 2 2 1 1 1 1 2 2 2 3 4 4 5 5 5 6 7 7 8 9 9 11 12 12 12 12 12 13 13 13 13 14 13 14 13 14
5 4 4 4 4 4 4 3 3 2 1 1 1 2 3 3 3 4 4 5 5 6 7 7 8 8 9 10 11 12 12 13 13 13 14 14 13 13 14 14 14 15 14
4 4 3 3 3 3 3 3 3 3 2 2 1 2 3 3 4 4 5 5 6 7 7 8 8 9 10 10 10 11 12 13 13 13 14 14 14 14 14 14 14 14 15
5 5 4 3 3 3 3 2 2 2 2 2 3 3 3 4 5 5 5 6 6 7 8 8 8 9 10 10 10 11 11 12 13 13 13 13 14 14 15 15 15 15 16
6 5 5 4 4 3 3 2 2 2 3 4 4 4 5 5 5 6 7 7 8 8 9 9 9 10 10 11 11 12 12 13 13 13 13 13 14 14 15 15 16 16 16
6 5 5 4 4 3 3 3 3 3 4 4 5 6 6 6 7 7 7 7 8 9 10 10 10 11 11 12 13 13 13 13 13 14 13 13 13 14 14 14 15 15 16
5 4 4 4 4 4 4 3 4 4 5 5 6 7 7 7 8 8 8 8 9 9 10 10 10 11 11 12 13 12 12 13 14 14 13 14 14 15 15 15 15 15 16
4 4 4 5 5 5 5 5 5 6 6 6 7 7 8 9 9 8 8 9 10 10 10 10 10 11 12 12 13 13 13 14 14 14 14 15 15 15 15 15 15 15 15
4 4 5 5 6 6 6 5 6 6 6 7 8 8 8 9 9 9 9 10 10 10 11 11 11 12 12 13 13 13 13 14 15 15 15 15 15 15 15 15 15 15 15
5 5 6 7 7 7 7 7 7 7 7 8 8 9 9 9 10 10 10 11 11 11 12 12 12 13 13 13 14 14 15 15 16 16 16 15 16 16 16 16 16 16 15
6 6 7 7 8 7 8 8 8 8 8 8 9 9 9 10 10 10 11 11 12 12 13 13 13 13 14 14 15 15 16 16 17 16 16 16 16 16 16 16 16 16 16
7 7 7 8 8 8 9 9 9 9 9 9 9 10 10 11 11 11 12 12 13 14 14 14 15 15 15 15 16 16 17 17 17 17 16 17 16 16 17 17 16 17 16
8 9 8 8 9 9 10 10 10 9 9 10 10 11 11 12 12 12 12 13 14 14 14 15 16 17 17 17 17 17 17 18 17 17 17 17 17 17 17 17 17 17 18
9 9 9 9 10 10 11 11 11 11 11 11 12 12 13 13 14 14 14 14 14 15 15 15 16 16 17 17 18 18 17 18 18 18 18 18 18 18 17 17 18 19 19
9 9 10 10 11 11 12 12 12 12 12 13 13 14 14 15 15 15 15 16 16 16 16 16 17 17 17 17 18 18 18 18 18 17 17 18 18 19 19 20 20 19 20
10 10 11 11 12 12 12 12 12 12 13 13 14 14 15 15 15 15 16 16 17 18 18 18 18 19 19 19 19 18 18 18 18 18 18 18 18 19 19 20 20 21 21
11 11 12 13 14 14 13 13 13 13 13 14 14 15 16 16 16 17 17 17 18 19 19 20 20 20 20 20 20 20 20 20 19 19 19 19 20 20 20 20 21 21 22
12 12 13 13 14 15 15 14 15 15 15 15 16 16 17 17 17 18 18 18 18 19 20 20 20 21 20 20 20 21 21 21 20 20 21 21 21 21 21 21 21 22 23
13 14 14 15 15 16 16 16 16 16 16 16 17 18 18 18 18 19 19 18 18 19 20 21 21 21 21 21 21 22 22 22 21 21 22 22 22 22 21 22 22 23 23
14 15 16 17 17 17 18 18 18 17 18 18 18 19 19 19 19 19 19 19 20 20 20 21 21 21 21 21 22 22 23 23 23 23 23 23 23 23 23 23 23 23 23
16 17 17 18 19 19 19 20 20 19 20 20 20 20 20 20 20 20 20 20 21 21 21 21 22 22 22 22 23 24 24 24 24 24 24 24 24 24 24 25 25 24 24
18 18 19 19 20 20 21 21 22 21 22 22 22 21 22 22 21 21 21 21 22 22 22 22 23 23 23 24 25 26 26 26 26 25 25 25 26 25 25 26 26 25 25
19 19 20 20 20 21 21 22 22 22 23 23 23 23 23 22 22 22 22 22 22 23 23 23 24 24 25 25 26 27 27 27 27 26 26 25 26 26 27 27 26 25 25
20 20 20 21 21 22 22 24 24 24 24 24 24 24 23 23 23 23 24 24 24 24 25 25 25 26 26 27 28 28 28 28 28 27 26 26 26 26 27 27 27 26 26
21 21 22 22 23 23 23 24 25 25 25 25 25 24 24 24 25 25 25 25 25 25 26 26 26 27 27 28 28 29 29 29 29 28 27 27 27 27 26 26 26 25 25
22 23 24 24 25 25 25 25 26 26 26 26 25 25 25 25 26 26 26 26 26 27 27 27 27 28 28 28 28 29 29 29 28 28 28 27 27 28 27 26 26 25 25
Wind_Direction
106 102 102 92 95 95 93 87 76 85 128 190 254 279 276 275 277 282 277 277 282 285 282 280 284 280 276 276 276 276 277 278 278 279 279 280 275 271 273 272 271 269 264
96 97 101 101 101 98 91 83 69 61 56 7 316 293 286 282 291 287 286 285 283 288 293 287 285 283 282 283 281 280 279 280 279 277 278 279 280 279 276 273 274 270 268
86 91 96 94 88 87 86 71 59 55 49 22 351 323 310 304 297 295 295 297 296 297 292 290 292 285 287 285 285 285 284 283 281 280 279 278 278 280 281 278 274 272 271
72 77 81 73 69 70 61 53 46 44 25 354 339 322 312 317 313 302 296 297 300 300 295 292 291 288 290 289 286 285 284 285 284 282 283 282 279 281 282 279 275 273 270
63 61 69 61 57 47 36 23 14 359 350 343 341 333 322 316 315 306 296 293 296 299 296 294 290 291 293 292 291 288 285 286 285 282 283 283 285 285 282 280 278 275 273
59 57 55 56 45 28 11 358 353 343 338 335 333 327 321 316 311 309 307 303 300 300 296 296 295 294 294 294 295 292 288 286 288 286 285 288 286 287 283 281 280 277 276
57 50 43 31 22 10 356 347 339 337 333 327 325 322 319 318 317 314 311 310 311 311 304 299 299 298 297 296 296 292 290 289 288 287 287 288 287 288 284 283 279 280 277
42 34 24 14 2 354 344 336 332 320 316 315 316 319 319 317 314 313 311 306 308 310 311 307 301 298 298 298 295 292 290 291 290 286 285 284 282 281 282 280 280 280 278
19 15 10 359 350 344 335 325 320 316 313 314 314 315 317 318 316 313 309 306 305 306 307 307 306 303 301 302 301 297 293 290 290 287 285 284 280 279 279 279 280 279 280
350 352 349 346 343 339 334 327 320 319 317 314 314 312 312 314 315 313 309 307 304 303 304 304 305 306 304 302 301 298 295 293 292 288 287 284 281 280 278 278 277 279 282
343 345 344 341 341 340 337 334 330 326 323 318 315 311 310 310 312 311 308 306 304 305 306 304 305 306 306 302 301 300 297 293 292 289 287 287 284 281 277 279 278 279 280
336 336 337 334 333 336 336 334 332 328 321 317 315 311 308 309 309 308 305 303 303 304 304 304 303 304 304 303 301 300 299 297 293 287 286 288 285 282 278 278 279 280 280
326 328 331 331 329 330 332 330 329 327 320 316 314 312 308 307 307 305 304 304 303 301 301 302 303 302 301 301 300 300 302 302 295 288 288 288 284 283 280 280 280 278 278
324 327 329 329 328 325 326 326 324 322 318 316 314 311 309 307 305 303 303 303 303 300 299 299 301 302 302 301 299 300 301 299 297 293 290 290 287 285 282 282 280 278 278
321 322 321 322 324 322 323 322 320 319 318 315 312 312 309 307 307 304 302 301 302 301 300 300 301 300 301 302 302 300 300 298 295 294 291 291 289 286 282 282 281 279 278
321 321 318 321 321 321 319 318 318 319 317 314 312 310 311 310 309 307 305 303 302 302 301 300 300 300 300 300 300 300 301 300 296 293 290 290 290 288 285 285 284 280 279
315 315 314 315 315 315 316 314 313 314 315 313 313 311 310 311 310 310 309 307 305 304 303 302 302 301 299 299 300 299 300 298 295 292 291 289 289 288 286 286 284 281 281
307 307 309 310 310 309 309 308 309 311 311 310 310 309 309 309 310 310 309 307 305 303 303 303 303 304 302 299 299 298 299 299 295 292 291 293 292 290 289 287 284 283 282
304 303 304 305 305 305 305 304 305 307 308 307 306 308 309 309 309 309 309 308 306 305 305 303 302 301 302 301 300 300 301 298 297 295 293 292 292 292 291 289 287 285 284
302 302 303 302 304 302 303 302 302 305 304 304 304 305 306 307 306 305 306 305 305 305 305 305 304 303 302 301 301 301 301 299 298 295 294 291 290 291 291 289 286 285 284
301 301 302 301 300 299 301 301 299 299 301 301 302 303 305 305 303 303 304 304 304 304 304 304 305 305 304 302 301 302 302 301 299 296 296 294 293 291 292 292 289 286 284
300 300 300 300 298 297 298 299 299 299 300 299 299 300 301 302 302 303 303 303 303 303 303 303 304 304 303 302 303 303 302 302 301 299 297 296 295 293 292 292 290 286 283
298 298 299 299 298 297 297 298 298 298 301 302 301 299 300 301 301 301 301 300 300 301 301 302 303 303 303 303 303 303 302 301 301 301 298 297 295 293 292 291 288 286 285
296 297 298 298 297 297 298 299 298 297 299 301 302 300 299 301 300 301 301 301 300 300 301 302 302 301 302 302 303 303 302 303 303 300 300 300 297 295 294 291 289 287 286
293 295 296 297 298 298 297 298 297 298 299 300 299 298 298 300 302 301 301 300 299 300 300 301 301 301 302 302 301 301 301 300 301 299 298 299 298 298 296 293 290 288 289
291 294 296 297 298 299 298 297 296 297 299 300 299 297 297 299 301 301 300 300 300 300 300 300 300 301 302 302 301 301 301 299 300 300 297 297 297 297 298 296 294 292 291
Height
5894 5894 5894 5894 5894 5893 5893 5893 5893 5892 5892 5892 5892 5892 5891 5891 5890 5890 5889 5889 5888 5888 5887 5886 5886 5885 5885 5884 5884 5884 5883 5883 5882 5882 5881 5881 5880 5880 5880 5880 5879 5879 5879
5895 5895 5895 5895 5895 5894 5894 5894 5893 5892 5892 5892 5892 5891 5891 5890 5890 5889 5889 5888 5887 5887 5886 5885 5884 5884 5883 5882 5882 5881 5881 5880 5879 5879 5878 5878 5877 5877 5876 5876 5876 5876 5876
5896 5896 5896 5895 5895 5895 5895 5894 5894 5893 5893 5892 5891 5891 5890 5890 5889 5888 5888 5887 5886 5885 5884 5884 5883 5882 5881 5880 5880 5879 5878 5877 5876 5876 5875 5875 5874 5874 5873 5873 5873 5873 5873
5897 5897 5896 5896 5895 5895 5895 5894 5894 5893 5893 5892 5891 5890 5890 5889 5888 5887 5886 5886 5885 5884 5883 5882 5881 5880 5879 5878 5877 5876 5876 5875 5874 5873 5872 5871 5871 5870 5870 5870 5870 5869 5869
5898 5897 5897 5896 5896 5895 5895 5894 5894 5893 5892 5891 5890 5889 5889 5888 5887 5886 5885 5884 5883 5882 5881 5880 5879 5878 5877 5876 5875 5874 5873 5871 5870 5869 5869 5868 5868 5867 5867 5866 5866 5866 5865
5898 5898 5897 5896 5896 5895 5895 5894 5893 5893 5892 5891 5890 5889 5888 5887 5886 5885 5884 5883 5882 5881 5879 5878 5877 5876 5875 5873 5872 5871 5870 5869 5867 5866 5865 5865 5864 5863 5863 5863 5862 5862 5861
5899 5898 5897 5897 5896 5895 5894 5893 5893 5892 5891 5890 5889 5888 5887 5885 5884 5883 5882 5881 5880 5879 5877 5876 5875 5874 5872 5871 5869 5868 5867 5865 5864 5863 5862 5862 5861 5860 5859 5859 5859 5858 5858
5899 5898 5897 5896 5896 5894 5893 5892 5891 5890 5890 5889 5888 5886 5885 5884 5882 5881 5880 5879 5878 5876 5875 5874 5872 5871 5870 5868 5866 5865 5864 5862 5861 5860 5859 5858 5857 5856 5856 5855 5855 5854 5854
5899 5898 5897 5896 5895 5893 5892 5891 5890 5889 5888 5887 5886 5885 5884 5883 5881 5880 5878 5877 5876 5874 5873 5871 5870 5869 5867 5865 5864 5862 5861 5859 5858 5856 5855 5854 5854 5853 5852 5851 5851 5850 5850
5899 5897 5896 5895 5894 5892 5891 5890 5889 5888 5887 5886 5884 5883 5882 5881 5879 5878 5877 5875 5873 5872 5871 5869 5868 5866 5864 5863 5861 5859 5857 5856 5854 5852 5851 5850 5850 5849 5848 5848 5847 5846 5846
5898 5897 5896 5894 5893 5892 5890 5889 5888 5886 5885 5884 5883 5882 5880 5879 5877 5876 5875 5873 5871 5870 5868 5867 5865 5863 5861 5859 5858 5856 5854 5852 5850 5849 5848 5847 5846 5845 5844 5844 5843 5842 5842
5898 5897 5895 5893 5892 5891 5889 5887 5886 5885 5883 5882 5881 5879 5878 5877 5875 5874 5872 5871 5869 5867 5865 5864 5862 5860 5858 5856 5854 5852 5850 5848 5846 5845 5844 5843 5842 5841 5840 5839 5838 5838 5837
5897 5896 5894 5892 5891 5889 5888 5886 5885 5883 5882 5880 5878 5877 5875 5874 5872 5871 5869 5868 5866 5864 5863 5861 5859 5856 5854 5852 5850 5848 5847 5844 5842 5841 5840 5839 5838 5837 5836 5835 5834 5833 5832
5896 5894 5892 5891 5889 5887 5886 5884 5882 5881 5879 5878 5876 5874 5873 5871 5869 5867 5866 5864 5863 5861 5859 5857 5855 5852 5850 5848 5846 5844 5842 5840 5838 5837 5836 5835 5833 5832 5831 5830 5829 5828 5827
5894 5892 5891 5889 5887 5885 5883 5882 5880 5878 5877 5875 5873 5872 5870 5868 5866 5864 5862 5860 5859 5857 5856 5853 5851 5849 5846 5844 5842 5840 5838 5836 5834 5833 5831 5830 5828 5827 5826 5825 5824 5823 5822
5892 5890 5889 5887 5885 5883 5881 5879 5878 5876 5874 5872 5870 5868 5866 5864 5862 5860 5858 5856 5854 5853 5851 5849 5847 5844 5842 5840 5837 5835 5833 5831 5829 5828 5826 5825 5823 5822 5820 5820 5818 5817 5816
5890 5888 5886 5885 5883 5881 5879 5877 5875 5873 5871 5869 5867 5865 5863 5861 5859 5856 5854 5852 5850 5848 5846 5844 5842 5839 5837 5835 5833 5830 5828 5826 5824 5823 5821 5820 5818 5816 5815 5814 5812 5811 5810
5887 5885 5883 5882 5880 5878 5876 5874 5872 5870 5868 5866 5863 5861 5859 5857 5855 5852 5850 5847 5845 5843 5841 5839 5837 5834 5832 5830 5828 5825 5823 5820 5818 5817 5816 5814 5813 5811 5809 5808 5806 5805 5804
5884 5882 5880 5878 5876 5874 5872 5870 5867 5866 5864 5861 5859 5857 5855 5852 5850 5848 5845 5843 5840 5838 5836 5834 5832 5829 5827 5825 5823 5820 5818 5815 5813 5811 5810 5808 5807 5805 5803 5802 5800 5799 5797
5880 5878 5876 5874 5872 5870 5868 5866 5863 5861 5859 5857 5855 5853 5850 5848 5845 5843 5841 5838 5836 5833 5831 5828 5826 5824 5822 5819 5817 5815 5813 5810 5808 5805 5803 5801 5799 5798 5796 5795 5793 5792 5790
5876 5874 5872 5870 5868 5866 5864 5861 5859 5857 5855 5852 5850 5847 5845 5843 5840 5838 5836 5833 5831 5828 5825 5823 5821 5819 5816 5814 5812 5809 5807 5804 5802 5799 5796 5794 5792 5791 5789 5787 5785 5784 5783
5872 5870 5868 5865 5863 5861 5859 5857 5854 5852 5849 5847 5845 5842 5840 5837 5835 5833 5830 5828 5825 5823 5820 5818 5815 5813 5810 5808 5805 5802 5800 5798 5795 5793 5790 5787 5785 5783 5781 5780 5778 5776 5774
5867 5865 5863 5860 5858 5856 5854 5851 5849 5846 5844 5841 5839 5837 5834 5832 5829 5827 5824 5822 5819 5817 5814 5812 5809 5807 5804 5801 5799 5796 5793 5790 5788 5785 5783 5780 5778 5776 5773 5771 5769 5768 5766
5862 5860 5858 5855 5853 5851 5848 5846 5843 5840 5838 5836 5833 5831 5828 5826 5823 5821 5818 5816 5813 5811 5808 5806 5803 5800 5797 5794 5791 5788 5786 5783 5780 5777 5775 5773 5770 5768 5765 5763 5761 5759 5757
5857 5855 5852 5850 5848 5845 5843 5840 5837 5834 5832 5830 5827 5824 5822 5820 5817 5814 5812 5809 5807 5805 5801 5798 5795 5793 5790 5787 5784 5781 5778 5775 5773 5770 5767 5765 5762 5760 5758 5755 5752 5751 5749
5851 5849 5846 5844 5841 5839 5837 5834 5831 5828 5826 5823 5821 5818 5816 5813 5811 5808 5805 5803 5800 5797 5794 5791 5788 5785 5782 5779 5776 5773 5770 5767 5764 5762 5759 5757 5754 5752 5750 5747 5745 5743 5741